Regional Weather Roundup
Issued by NWS

Home | Current Version | Previous Version | Text Only | Print | Product List | Glossary On
Versions: 1 2 3 4 5 6 7 8 9 10 11 12 13 14 15 16 17 18 19 20 21 22 23 24 25 26 27 28 29 30 31 32 33 34 35 36 37 38 39 40 41 42 43 44 45 46 47 48 49 50
000
ASUS46 KSEW 300510
RWRWA

WASHINGTON REGIONAL WEATHER ROUNDUP
NATIONAL WEATHER SERVICE SEATTLE WA
900 PM PST THU JAN 29 2015

NOTE:"FAIR" INDICATES FEW OR NO CLOUDS BELOW 12,000 FEET WITH NO
SIGNIFICANT WEATHER AND/OR OBSTRUCTIONS TO VISIBILITY.

WAZ505-507>509-300600-
SEATTLE, TACOMA, EVERETT, AND VICINITY

CITY           SKY/WX    TMP DP  RH WIND       PRES   REMARKS
EVERETT        CLEAR     41  37  86 N5        30.31S
BOEING FIELD   CLEAR     46  38  73 CALM      30.31S
RENTON         CLEAR     44  39  82 NW5       30.30S
SEATAC AIRPORT CLEAR     45  37  73 N9        30.30F
JBLM-MCCHORD   CLEAR     37  37  99 CALM      30.30S
PUYALLUP       FAIR      37  37 100 CALM      30.30S
BREMERTON      CLEAR     43  37  81 NE7       30.32S
JBLM-FT LEWIS  CLEAR     38  38  99 VRB2      30.29S
TACOMA NARROWS CLEAR     44  39  82 CALM      30.31S
$$

WAZ001-503-506-510-514-515-300600-
NORTH INTERIOR

CITY           SKY/WX    TMP DP  RH WIND       PRES   REMARKS
BELLINGHAM     CLEAR     37  35  92 CALM      30.32S
FRIDAY HARBOR  CLEAR     38  36  92 NW3       30.34R
EASTSOUND      MOCLDY    39  39 100 CALM      30.32R FOG
PORT ANGELES   CLEAR     35  33  92 CALM      30.32S
NAS WHIDBEY    PTCLDY    40  37  89 SE6       30.33S
ARLINGTON      CLEAR     36  30  80 NW3       30.33R
BURLINGTON     CLEAR     39 N/A N/A CALM      30.33S
$$

WAZ020-022-039-040-504-511-512-300600-
SOUTHWEST INTERIOR

CITY           SKY/WX    TMP DP  RH WIND       PRES   REMARKS
SHELTON        CLEAR     36  35  96 CALM      30.29R
OLYMPIA        FOG       36  34  92 CALM      30.30S VSB 3/4
CHEHALIS       FOG       39  39 100 S5        30.30S VSB 1/4
KELSO          CLEAR     39  36  87 CALM      30.33S
VANCOUVER      CLEAR     37  33  85 CALM      30.30R
SCAPPOOSE, OR  CLEAR     37  37 100 SW3       30.29S FOG
PORTLAND, OR   CLEAR     42  36  79 CALM      30.30R
$$

WAZ021-516-517-300600-
WASHINGTON COAST

CITY           SKY/WX    TMP DP  RH WIND       PRES   REMARKS
FORKS          CLEAR     38  37  97 CALM      30.29S
HOQUIAM        CLEAR     46  42  86 CALM      30.28S
ASTORIA, OR    CLEAR     44  41  89 CALM      30.24S
$$

WAZ019-023-024-040-518-519-300600-
CASCADE MOUNTAINS AND COLUMBIA GORGE

CITY           SKY/WX    TMP DP  RH WIND       PRES   REMARKS
TROUTDALE, OR  CLEAR     45  34  65 E20G28    30.28S
THE DALLES, OR CLOUDY    41  35  79 NE5       30.46R
$$

WAZ026-027-041>044-520-521-300600-
EAST SLOPES

CITY           SKY/WX    TMP DP  RH WIND       PRES   REMARKS
OMAK           CLOUDY    35  31  85 CALM      30.43F
WENATCHEE      CLOUDY    36  32  85 NW5       30.43S
ELLENSBURG     CLOUDY    37  32  82 CALM      30.40R
YAKIMA         CLOUDY    38  33  82 CALM      30.43S
$$

WAZ028-034-035-300600-
COLUMBIA BASIN

CITY           SKY/WX    TMP DP  RH WIND       PRES   REMARKS
EPHRATA        CLOUDY    37  35  92 S3        30.41S
MOSES LAKE     CLOUDY    37  34  89 SW3       30.42F
PASCO          CLOUDY    40  36  86 CALM      30.46S
HERMISTON, OR  CLOUDY    38  35  89 NE3       30.44S FOG
$$

WAZ036>038-300600-
NORTHEAST WASHINGTON

CITY           SKY/WX    TMP DP  RH WIND       PRES   REMARKS
SPOKANE GEIGER FOG       29  28  96 CALM      30.36S VSB 3/4
SPOKANE FELTS  FOG       28  27  96 CALM      30.39F VSB 1/2
FAIRCHILD AFB  FRZ RAIN  28  28 100 NW6       30.35F VSB 1/4
COEURDALENE,ID   N/A     27  25  93 CALM      30.36S VSB 3/4
DEER PARK      PTCLDY    24  23  96 N5        30.37F FOG
$$

WAZ029>033-300600-
SOUTHEAST WASHINGTON

CITY           SKY/WX    TMP DP  RH WIND       PRES   REMARKS
PULLMAN        FOG       34  33  96 SE5       30.36F VSB 1/4
LEWISTON, ID   CLOUDY    36  34  92 S3        30.38F
WALLA WALLA    CLOUDY    36  35  96 CALM      30.41S FOG
PENDLETON, OR  CLOUDY    34  33  96 E6        30.39F FOG
$$



USA.gov is the U.S. government's official web portal to all federal, state and local government web resources and services.